Estación de Longaví Norte

Ultimos registro cada 15 minutos 22
Estación Fecha / Hora Temperatura Humedad Lluvia Velocidad Dirección Radiación Presion
22 Longaví Norte 05-09-2026 05:15 -0,9 99,9 0 0 209 0,6 1002,2
21 Longaví Norte 05-09-2026 05:00 -1,3 99,7 0 0 209 0,6 1002,2
20 Longaví Norte 05-09-2026 04:45 -1,1 99,5 0 0 209 0,6 1002,2
19 Longaví Norte 05-09-2026 04:30 -1 99,5 0 0 209 0,6 1002,3
18 Longaví Norte 05-09-2026 04:15 -1 99,3 0 0 209 0,6 1002,3
17 Longaví Norte 05-09-2026 04:00 -0,9 99,3 0 0 209 0,6 1002,4
16 Longaví Norte 05-09-2026 03:45 -0,9 98,8 0 0 209 0,6 1002,6
15 Longaví Norte 05-09-2026 03:30 -0,7 99 0 0 209 0,6 1002,7
14 Longaví Norte 05-09-2026 03:15 -0,5 98,9 0 0 209 0,6 1003
13 Longaví Norte 05-09-2026 03:00 -0,3 99 0 0 209 0,6 1003,3
12 Longaví Norte 05-09-2026 02:45 0 98,4 0 0 209 0,6 1003,5
11 Longaví Norte 05-09-2026 02:30 0,3 98,5 0 0 209 0,6 1003,6
10 Longaví Norte 05-09-2026 02:15 0,4 98,3 0 0 209 0,6 1003,8
9 Longaví Norte 05-09-2026 02:00 0,5 97,9 0 0 209 0,6 1004
8 Longaví Norte 05-09-2026 01:45 0,7 97,8 0 0 209 0,6 1004,1
7 Longaví Norte 05-09-2026 01:30 0,4 97,5 0 0 209 0,6 1004,2
6 Longaví Norte 05-09-2026 01:15 0,7 96,9 0 0 209 0,6 1004,4
5 Longaví Norte 05-09-2026 01:00 1,1 96,6 0 0 209 0,6 1004,5
4 Longaví Norte 05-09-2026 00:45 1,6 95,8 0 0 209 0,6 1004,5
3 Longaví Norte 05-09-2026 00:30 2,5 95,9 0 0 209 0,6 1004,5
2 Longaví Norte 05-09-2026 00:15 2,8 94,6 0 0 209 0,6 1004,7
1 Longaví Norte 05-09-2026 00:00 3,1 93,5 0 0 209 0,6 1004,9